Volver al catálogo

STARLINK-37573

ActivoComunicacionesSSO
NORAD 69422·PAYLOAD·🇺🇸 United States

Lanzado Jun 7, 2026 desde Vandenberg Space Force Base

Loading…

Próximos Pases (próximas 24 horas)

TLE

ActualizadoSource: CelesTrak SupGP

Época: Sep 15, 2026, 04:01 UTC

1 69422C 26126C   26258.16784722 -.00020560  00000+0 -63805-3 0  2587
2 69422  97.2844 119.5342 0001720 100.6401 161.6030 15.33458134    11

Sigue STARLINK-37573 en tiempo real con AllMySat

Download on the App Store